GW6947 Weather Reports


Display with metric or nautical units.
time (UTC)temp
F
wind
direction
speed
MPH
gust
MPH
rain 1hr
in
rain 24hr
in
rain mn
in
humidity
%
barometer
mb
20260906031356 75 83 1.0 2.0 0.00 0.02 0.02 82 1047.1
20260906030851 76 128 2.0 3.0 0.00 0.02 0.02 82 1047.0
20260906030347 75 183 1.0 8.0 0.00 0.02 0.02 82 1047.1
20260906025847 75 25 2.0 2.0 0.00 0.02 0.02 84 1047.2
20260906025340 75 289 0.0 0.0 0.00 0.02 0.02 84 1047.0
20260906024840 75 283 0.0 0.0 0.00 0.02 0.02 83 1046.7
20260906024339 76 284 0.0 0.0 0.00 0.02 0.02 82 1046.9
20260906023834 75 263 0.0 0.0 0.00 0.02 0.02 82 1046.9
20260906023330 75 273 0.0 0.0 0.00 0.02 0.02 83 1046.8
20260906022825 76 294 0.0 1.0 0.00 0.02 0.02 83 1046.7
20260906022320 76 266 0.0 0.0 0.00 0.02 0.02 82 1046.9
20260906021816 77 277 0.0 0.0 0.00 0.02 0.02 80 1047.0
20260906021315 78 62 0.0 0.0 0.00 0.02 0.02 76 1046.6
20260906020810 78 62 0.0 0.0 0.00 0.02 0.02 76 1046.9
20260906020310 79 62 0.0 0.0 0.00 0.02 0.02 74 1046.7
20260906015810 79 62 1.0 2.0 0.00 0.02 0.02 74 1046.6
20260906015309 79 55 1.0 1.0 0.00 0.02 0.02 75 1046.6
20260906014809 79 55 0.0 0.0 0.00 0.02 0.02 76 1046.6
20260906014304 79 55 0.0 0.0 0.00 0.02 0.02 76 1046.7
20260906013801 79 10 1.0 1.0 0.00 0.02 0.02 77 1046.6
20260906013301 79 42 0.0 2.0 0.00 0.02 0.02 78 1046.7
20260906012756 79 43 0.0 0.0 0.00 0.02 0.02 77 1046.6
20260906012251 79 56 1.0 2.0 0.00 0.02 0.02 77 1046.4
20260906011746 79 17 0.0 0.0 0.00 0.02 0.02 81 1046.5
20260906011246 80 348 1.0 1.0 0.00 0.02 0.02 81 1046.5
20260906010742 80 106 1.0 1.0 0.00 0.02 0.02 79 1046.3
20260906010238 81 98 0.0 1.0 0.00 0.02 0.02 76 1046.3
20260906005733 81 48 0.0 0.0 0.00 0.02 0.02 75 1046.2
20260906005232 81 56 0.0 2.0 0.00 0.02 0.02 76 1046.3
20260906004731 81 104 0.0 1.0 0.00 0.02 0.02 77 1046.1
20260906004226 81 146 0.0 0.0 0.00 0.02 0.02 76 1046.1
20260906003721 81 82 0.0 1.0 0.00 0.02 0.02 76 1046.1
20260906003217 82 118 2.0 2.0 0.00 0.02 0.02 73 1045.8
20260906002717 82 321 1.0 1.0 0.00 0.02 0.02 74 1046.1
20260906002212 82 144 0.0 0.0 0.00 0.02 0.02 74 1046.1
20260906001707 83 82 0.0 1.0 0.00 0.02 0.02 76 1046.2
20260906001207 83 110 0.0 0.0 0.00 0.02 0.02 75 1046.4
20260906000703 84 121 0.0 0.0 0.00 0.02 0.02 72 1046.4
20260906000158 85 67 0.0 1.0 0.00 0.02 0.02 67 1046.3
20260905235657 85 285 0.0 0.0 0.00 0.02 0.02 65 1046.1
20260905235152 85 293 0.0 0.0 0.00 0.02 0.02 66 1046.3
20260905234647 85 280 0.0 0.0 0.00 0.02 0.02 66 1046.6
20260905234143 86 285 0.0 0.0 0.00 0.02 0.02 64 1046.6
20260905233638 87 332 0.0 0.0 0.00 0.02 0.02 63 1046.5
20260905233137 87 345 0.0 1.0 0.00 0.02 0.02 62 1046.6
20260905232632 87 319 0.0 2.0 0.00 0.02 0.02 62 1046.6
20260905232128 87 299 1.0 1.0 0.00 0.02 0.02 63 1046.5
20260905231623 88 310 1.0 1.0 0.00 0.02 0.02 60 1046.6
20260905231119 88 357 0.0 0.0 0.00 0.02 0.02 61 1046.7
20260905230615 88 16 0.0 1.0 0.00 0.02 0.02 61 1046.7
20260905230113 89 301 0.0 1.0 0.00 0.02 0.02 58 1046.6
20260905225612 89 306 1.0 2.0 0.00 0.02 0.02 57 1046.6
20260905225108 89 297 1.0 1.0 0.00 0.02 0.02 57 1046.5
20260905224607 90 326 1.0 2.0 0.00 0.02 0.02 56 1046.5
20260905224107 90 309 1.0 1.0 0.00 0.02 0.02 55 1046.5
20260905223604 91 1 2.0 2.0 0.00 0.02 0.02 53 1046.6
20260905223100 91 317 0.0 1.0 0.00 0.02 0.02 51 1046.7
20260905222600 91 5 3.0 3.0 0.00 0.02 0.02 51 1046.7
20260905222055 92 2 2.0 3.0 0.00 0.02 0.02 51 1046.7
20260905221552 92 339 2.0 4.0 0.00 0.02 0.02 51 1046.6
20260905221047 91 326 1.0 2.0 0.00 0.02 0.02 51 1046.7
20260905220543 92 14 2.0 2.0 0.00 0.02 0.02 51 1046.7
20260905220039 92 14 2.0 3.0 0.00 0.02 0.02 51 1046.6
20260905215538 92 20 1.0 3.0 0.00 0.02 0.02 49 1046.6
20260905215034 92 304 3.0 3.0 0.00 0.02 0.02 50 1046.6
20260905214530 92 23 1.0 3.0 0.00 0.02 0.02 52 1046.7
20260905214025 92 328 4.0 9.0 0.00 0.02 0.02 50 1046.3
20260905213520 93 333 6.0 7.0 0.00 0.02 0.02 48 1046.3
20260905213016 93 23 1.0 3.0 0.00 0.02 0.02 51 1046.3
20260905212511 93 301 2.0 4.0 0.00 0.02 0.02 48 1046.3
20260905212010 93 230 4.0 4.0 0.00 0.02 0.02 47 1046.2
20260905211505 93 325 3.0 6.0 0.00 0.02 0.02 48 1046.4
20260905211001 93 302 4.0 6.0 0.00 0.02 0.02 48 1046.6
20260905210456 93 323 4.0 7.0 0.00 0.02 0.02 48 1046.4
20260905205955 93 339 4.0 6.0 0.00 0.02 0.02 48 1046.6
20260905205451 93 293 2.0 4.0 0.00 0.02 0.02 49 1046.3
20260905204949 94 323 2.0 7.0 0.00 0.02 0.02 47 1046.1
20260905204445 93 297 1.0 2.0 0.00 0.02 0.02 52 1046.4
20260905203944 93 299 4.0 6.0 0.00 0.02 0.02 49 1046.4
20260905203440 93 313 2.0 3.0 0.00 0.02 0.02 49 1046.5
20260905202936 93 256 1.0 2.0 0.00 0.02 0.02 48 1046.6
20260905202431 93 43 3.0 4.0 0.00 0.02 0.02 47 1046.8
20260905201926 93 323 4.0 7.0 0.00 0.02 0.02 47 1046.8
20260905201421 94 297 5.0 6.0 0.00 0.02 0.02 48 1047.0
20260905200921 93 307 3.0 4.0 0.00 0.02 0.02 47 1047.0
20260905200417 93 243 1.0 3.0 0.00 0.02 0.02 52 1047.1
20260905195915 93 295 4.0 6.0 0.00 0.02 0.02 48 1047.0
20260905195410 93 291 5.0 6.0 0.00 0.02 0.02 48 1046.8
20260905194906 94 250 2.0 6.0 0.00 0.02 0.02 47 1047.0
20260905194405 94 236 0.0 2.0 0.00 0.02 0.02 48 1047.2
20260905193905 93 57 1.0 2.0 0.00 0.02 0.02 47 1047.5
20260905193400 94 291 4.0 4.0 0.00 0.02 0.02 44 1047.6
20260905192856 93 239 1.0 3.0 0.00 0.02 0.02 47 1047.5
20260905192351 93 265 5.0 6.0 0.00 0.02 0.02 45 1047.6
20260905191851 92 317 3.0 4.0 0.00 0.02 0.02 47 1047.5
20260905191350 92 216 3.0 4.0 0.00 0.02 0.02 46 1047.4
20260905190850 92 220 2.0 4.0 0.00 0.02 0.02 46 1047.7
20260905190348 92 213 2.0 4.0 0.00 0.02 0.02 46 1047.8
20260905185847 93 226 3.0 4.0 0.00 0.02 0.02 47 1047.9
20260905185343 92 178 2.0 3.0 0.00 0.02 0.02 47 1047.9
20260905184841 92 296 3.0 4.0 0.00 0.02 0.02 52 1048.0
20260905184341 92 262 2.0 7.0 0.00 0.02 0.02 50 1047.8
20260905183839 91 272 5.0 7.0 0.00 0.02 0.02 51 1048.0
20260905183335 91 221 5.0 6.0 0.00 0.02 0.02 51 1048.2
20260905182836 91 238 2.0 4.0 0.00 0.02 0.02 52 1048.3
20260905182335 91 228 2.0 3.0 0.00 0.02 0.02 55 1048.2
20260905181831 90 175 2.0 6.0 0.00 0.02 0.02 50 1048.4
20260905181330 90 130 4.0 4.0 0.00 0.02 0.02 49 1048.3
20260905180829 91 153 7.0 7.0 0.00 0.02 0.02 50 1048.3
20260905180325 91 205 4.0 7.0 0.00 0.02 0.02 52 1048.4
20260905175819 91 100 1.0 3.0 0.00 0.02 0.02 56 1048.5
20260905175314 90 224 4.0 4.0 0.00 0.02 0.02 58 1048.6
20260905174809 89 220 2.0 3.0 0.00 0.02 0.02 54 1048.3
20260905174305 89 142 2.0 3.0 0.00 0.02 0.02 52 1048.6
20260905173801 89 222 4.0 6.0 0.00 0.02 0.02 52 1048.6
20260905173256 90 158 3.0 7.0 0.00 0.02 0.02 51 1048.6
20260905172756 89 219 2.0 3.0 0.00 0.02 0.02 51 1048.8
20260905172254 89 120 3.0 6.0 0.00 0.02 0.02 54 1048.9
20260905171751 89 194 5.0 6.0 0.00 0.02 0.02 50 1048.8
20260905171247 88 229 1.0 6.0 0.00 0.02 0.02 54 1049.1
20260905170743 88 117 4.0 8.0 0.00 0.02 0.02 53 1049.1
20260905170239 87 132 4.0 4.0 0.00 0.02 0.02 51 1049.1
20260905165738 87 137 4.0 6.0 0.00 0.02 0.02 54 1049.1
20260905165234 87 158 2.0 8.0 0.00 0.02 0.02 52 1049.3
20260905164733 87 154 1.0 6.0 0.00 0.02 0.02 54 1049.0
20260905164228 86 149 4.0 6.0 0.00 0.02 0.02 55 1049.0
20260905163724 86 160 3.0 6.0 0.00 0.02 0.02 54 1049.1
20260905163220 87 142 2.0 3.0 0.00 0.02 0.02 56 1049.1
20260905162716 86 129 2.0 6.0 0.00 0.02 0.02 60 1049.1
20260905162216 86 146 4.0 6.0 0.00 0.02 0.02 59 1049.3
20260905161711 85 174 5.0 7.0 0.00 0.02 0.02 63 1049.1
20260905161209 85 128 4.0 4.0 0.00 0.02 0.02 62 1049.3
20260905160708 85 145 6.0 8.0 0.00 0.02 0.02 58 1049.3
20260905160207 84 131 1.0 4.0 0.00 0.02 0.02 62 1049.3
20260905155702 84 199 5.0 7.0 0.00 0.02 0.02 63 1049.2
20260905155201 84 195 4.0 6.0 0.00 0.02 0.02 59 1049.5
20260905154655 83 151 5.0 7.0 0.00 0.02 0.02 65 1049.7
20260905154151 84 153 3.0 6.0 0.00 0.02 0.02 65 1049.8
20260905153647 83 151 2.0 6.0 0.00 0.02 0.02 67 1049.7
20260905153142 82 164 2.0 9.0 0.00 0.02 0.02 66 1049.9
20260905152637 82 115 6.0 7.0 0.00 0.02 0.02 66 1049.8
20260905152131 81 131 6.0 7.0 0.00 0.02 0.02 70 1049.9
20260905151627 81 170 5.0 8.0 0.00 0.02 0.02 69 1050.0
20260905151122 80 169 5.0 6.0 0.00 0.02 0.02 72 1050.0
20260905150617 80 177 6.0 7.0 0.00 0.02 0.02 71 1049.8
20260905150115 80 164 5.0 6.0 0.00 0.02 0.02 72 1049.9
20260905145614 80 131 4.0 8.0 0.00 0.02 0.02 72 1049.8
20260905145113 80 164 5.0 6.0 0.00 0.02 0.02 73 1049.9
20260905144608 80 112 7.0 10.0 0.00 0.02 0.02 73 1049.9
20260905144108 80 141 6.0 8.0 0.00 0.02 0.02 71 1050.0
20260905143607 79 115 5.0 7.0 0.00 0.02 0.02 73 1050.2
20260905143102 79 116 6.0 9.0 0.00 0.02 0.02 75 1050.1
20260905142602 79 106 7.0 8.0 0.00 0.02 0.02 74 1050.2
20260905142102 78 103 4.0 6.0 0.00 0.02 0.02 79 1050.1
20260905141601 77 109 5.0 6.0 0.00 0.02 0.02 79 1050.2
20260905141058 76 107 2.0 6.0 0.00 0.02 0.02 81 1050.1
20260905140553 75 106 4.0 6.0 0.00 0.02 0.02 80 1049.9
20260905140052 75 169 2.0 4.0 0.00 0.02 0.02 80 1049.9
20260905135547 75 263 2.0 7.0 0.00 0.02 0.02 81 1050.1
20260905135047 74 124 0.0 3.0 0.00 0.02 0.02 83 1050.2
20260905134542 73 170 2.0 3.0 0.00 0.02 0.02 84 1050.3
20260905134041 73 44 6.0 11.0 0.00 0.02 0.02 84 1050.2
20260905133537 73 84 5.0 10.0 0.00 0.02 0.02 84 1050.0
20260905133036 73 89 4.0 8.0 0.00 0.02 0.02 85 1050.4
20260905132536 72 70 5.0 13.0 0.00 0.02 0.02 85 1050.5
20260905132031 72 82 3.0 7.0 0.00 0.02 0.02 86 1050.5
20260905131527 72 75 5.0 10.0 0.00 0.02 0.02 86 1050.5
20260905131022 72 297 8.0 11.0 0.00 0.02 0.02 87 1050.6
20260905130521 72 106 3.0 14.0 0.00 0.02 0.02 87 1050.9
20260905130016 72 49 3.0 11.0 0.00 0.02 0.02 87 1050.8
20260905125515 72 64 6.0 8.0 0.00 0.02 0.02 86 1050.4
20260905125011 72 110 5.0 9.0 0.00 0.02 0.02 86 1050.5
20260905124508 72 176 2.0 14.0 0.07 0.02 0.02 86 1050.4
20260905124003 73 52 10.0 15.0 0.07 0.02 0.02 84 1050.3
20260905123459 73 177 2.0 3.0 0.00 0.01 0.01 85 1049.7
20260905122955 73 54 4.0 6.0 0.00 0.01 0.01 85 1050.1
20260905122455 73 349 4.0 8.0 0.00 0.01 0.01 84 1050.0
20260905121949 73 21 5.0 9.0 0.00 0.01 0.01 83 1049.8
20260905121445 73 346 5.0 7.0 0.00 0.01 0.01 84 1049.8
20260905120944 73 54 6.0 7.0 0.00 0.01 0.01 84 1049.9
20260905120439 73 6 4.0 6.0 0.00 0.01 0.01 85 1050.0
20260905115934 73 335 4.0 9.0 0.00 0.01 0.01 86 1050.1
20260905115433 73 321 5.0 10.0 0.00 0.01 0.01 85 1050.2
20260905114929 72 308 4.0 6.0 0.00 0.01 0.01 86 1049.4
20260905114428 72 309 4.0 8.0 0.00 0.01 0.01 86 1049.3
20260905113927 72 293 5.0 8.0 0.00 0.01 0.01 86 1049.4
20260905113422 73 236 1.0 4.0 0.00 0.01 0.01 86 1049.7
20260905112918 72 104 4.0 9.0 0.05 0.01 0.01 87 1049.6
20260905112413 73 298 5.0 7.0 0.05 0.01 0.01 86 1049.0
20260905111908 73 330 10.0 18.0 0.00 0.00 0.00 83 1049.3
20260905111408 74 347 11.0 17.0 0.00 0.00 0.00 82 1048.8
20260905110903 75 52 12.0 18.0 0.00 0.00 0.00 83 1049.2
20260905110402 76 322 15.0 21.0 0.00 0.00 0.00 83 1049.0
20260905105857 76 33 7.0 8.0 0.00 0.00 0.00 86 1049.0
20260905105356 75 23 4.0 7.0 0.00 0.00 0.00 91 1048.9
20260905104856 74 325 2.0 7.0 0.00 0.00 0.00 94 1048.8
20260905104353 73 312 3.0 7.0 0.00 0.00 0.00 96 1048.8
20260905103852 72 322 1.0 3.0 0.00 0.00 0.00 96 1048.4
20260905103348 72 272 1.0 1.0 0.00 0.00 0.00 96 1048.3
20260905102843 72 202 0.0 1.0 0.00 0.00 0.00 95 1048.0
20260905102340 72 287 1.0 1.0 0.00 0.00 0.00 95 1048.1
20260905101840 72 280 0.0 0.0 0.00 0.00 0.00 95 1048.2
20260905101338 72 109 0.0 1.0 0.00 0.00 0.00 96 1047.9
20260905100833 71 39 2.0 2.0 0.00 0.00 0.00 96 1048.2
20260905100330 71 35 1.0 1.0 0.00 0.00 0.00 95 1048.3
20260905095829 72 119 2.0 2.0 0.00 0.00 0.00 94 1048.0
20260905095328 72 123 0.0 0.0 0.00 0.00 0.00 95 1048.3
20260905094823 72 263 0.0 0.0 0.00 0.00 0.00 95 1048.3
20260905094319 73 250 0.0 0.0 0.00 0.00 0.00 94 1048.1
20260905093817 72 4 0.0 0.0 0.00 0.00 0.00 95 1048.0
20260905093314 73 32 2.0 2.0 0.00 0.00 0.00 94 1048.1
20260905092809 73 50 2.0 2.0 0.00 0.00 0.00 94 1048.2
20260905092309 73 18 1.0 1.0 0.00 0.00 0.00 94 1047.9
20260905091804 73 2 0.0 0.0 0.00 0.00 0.00 94 1047.9
20260905091304 73 2 0.0 0.0 0.00 0.00 0.00 94 1047.9
20260905090803 73 2 0.0 0.0 0.00 0.00 0.00 94 1048.2
20260905090259 73 37 0.0 1.0 0.00 0.00 0.00 95 1047.9
20260905085758 73 29 1.0 1.0 0.00 0.00 0.00 95 1048.3
20260905085258 72 29 2.0 2.0 0.00 0.00 0.00 95 1048.0
20260905084754 72 28 2.0 2.0 0.00 0.00 0.00 95 1048.0
20260905084253 72 45 2.0 2.0 0.00 0.00 0.00 95 1048.1
20260905083748 72 64 0.0 0.0 0.00 0.00 0.00 95 1048.0
20260905083244 72 67 0.0 0.0 0.00 0.00 0.00 95 1048.0
20260905082739 72 66 0.0 0.0 0.00 0.00 0.00 95 1047.9
20260905082236 72 66 0.0 0.0 0.00 0.00 0.00 95 1047.9
20260905081736 72 66 0.0 0.0 0.00 0.00 0.00 95 1047.8
20260905081231 72 66 0.0 0.0 0.00 0.00 0.00 95 1047.7
20260905080730 72 66 0.0 0.0 0.00 0.00 0.00 95 1047.8
20260905080230 72 66 0.0 0.0 0.00 0.00 0.00 95 1048.0
20260905075729 72 66 0.0 0.0 0.00 0.00 0.00 95 1048.0
20260905075229 72 66 0.0 0.0 0.00 0.00 0.00 95 1048.0
20260905074728 72 66 0.0 0.0 0.00 0.00 0.00 95 1047.8
20260905074224 72 66 0.0 0.0 0.00 0.00 0.00 94 1048.2
20260905073719 73 66 0.0 0.0 0.00 0.00 0.00 94 1048.0
20260905073214 73 66 0.0 0.0 0.00 0.00 0.00 94 1047.9
20260905072714 72 66 0.0 0.0 0.00 0.00 0.00 94 1048.1
20260905072209 73 66 0.0 0.0 0.00 0.00 0.00 93 1048.3
20260905071706 73 66 0.0 0.0 0.00 0.00 0.00 93 1048.3
20260905071201 73 67 0.0 0.0 0.00 0.00 0.00 92 1048.5
20260905070656 74 67 1.0 1.0 0.00 0.00 0.00 91 1048.4
20260905070152 74 52 0.0 1.0 0.00 0.00 0.00 92 1048.4
20260905065651 74 44 2.0 2.0 0.00 0.00 0.00 92 1048.3
20260905065145 74 44 2.0 2.0 0.00 0.00 0.00 91 1048.3
20260905064640 74 1 1.0 1.0 0.00 0.00 0.00 91 1048.5
20260905064136 74 345 0.0 0.0 0.00 0.00 0.00 91 1048.6
20260905063634 74 345 0.0 0.0 0.00 0.00 0.00 92 1048.5
20260905063131 74 345 0.0 0.0 0.00 0.00 0.00 92 1048.8
20260905062627 73 345 0.0 0.0 0.00 0.00 0.00 92 1048.9
20260905062125 73 344 0.0 0.0 0.00 0.00 0.00 92 1049.2
20260905061620 73 341 1.0 1.0 0.00 0.00 0.00 92 1049.1
20260905061120 73 273 0.0 0.0 0.00 0.00 0.00 92 1048.9
20260905060616 74 271 0.0 1.0 0.00 0.00 0.00 92 1049.1
20260905060112 74 288 2.0 2.0 0.00 0.00 0.00 92 1049.2
20260905055610 74 162 0.0 0.0 0.00 0.00 0.00 91 1049.2
20260905055106 74 162 0.0 0.0 0.00 0.00 0.00 90 1049.4
20260905054601 75 303 0.0 2.0 0.00 0.00 0.00 90 1049.2
20260905054056 75 31 2.0 2.0 0.00 0.00 0.00 89 1049.1
20260905053555 74 17 0.0 0.0 0.00 0.00 0.00 91 1049.2
20260905053052 74 299 0.0 1.0 0.00 0.00 0.00 90 1049.3
20260905052551 74 267 0.0 0.0 0.00 0.00 0.00 91 1049.5
20260905052045 74 268 0.0 0.0 0.00 0.00 0.00 90 1049.5
20260905051541 74 274 0.0 0.0 0.00 0.00 0.00 89 1049.6
20260905051038 75 269 0.0 0.0 0.00 0.00 0.00 89 1049.5
20260905050534 75 271 0.0 0.0 0.00 0.00 0.00 88 1049.3
20260905050031 75 52 0.0 0.0 0.00 0.00 0.00 88 1049.4
20260905045525 75 35 0.0 0.0 0.00 0.00 0.00 88 1049.6
20260905045020 76 30 1.0 2.0 0.00 0.00 0.00 86 1049.4
20260905044520 76 22 0.0 0.0 0.00 0.00 0.00 86 1049.6
20260905044015 76 352 0.0 0.0 0.00 0.00 0.00 87 1049.4
20260905043514 76 116 0.0 0.0 0.00 0.00 0.00 87 1049.4
20260905043010 76 116 0.0 0.0 0.00 0.00 0.00 87 1049.5
20260905042508 76 116 0.0 0.0 0.00 0.00 0.00 86 1049.4
20260905042003 76 112 0.0 0.0 0.00 0.00 0.00 87 1049.5
20260905041459 76 21 0.0 1.0 0.00 0.00 0.00 87 1049.5
20260905040954 76 343 1.0 2.0 0.00 0.00 0.00 87 1049.5
20260905040453 76 47 3.0 3.0 0.00 0.00 0.00 86 1049.5
20260905035953 77 277 1.0 2.0 0.00 0.00 0.00 86 1049.2
20260905035448 78 277 2.0 2.0 0.00 0.00 0.00 84 1049.4
20260905034945 78 263 0.0 0.0 0.00 0.00 0.00 81 1049.5
20260905034440 78 27 0.0 0.0 0.00 0.00 0.00 79 1049.6
20260905033939 79 27 0.0 0.0 0.00 0.00 0.00 80 1049.7
20260905033439 79 21 0.0 1.0 0.00 0.00 0.00 80 1049.7
20260905032934 78 23 0.0 0.0 0.00 0.00 0.00 81 1049.6
20260905032430 77 75 0.0 1.0 0.00 0.00 0.00 84 1049.7
20260905031924 76 8 1.0 2.0 0.00 0.00 0.00 88 1049.5